Regional Weather Roundup
Issued by NWS

Home | Current Version | Previous Version | Graphics & Text | Print | Product List | Glossary On
Versions: 1 2 3 4 5 6 7 8 9 10 11 12 13 14 15 16 17 18 19 20 21 22 23 24 25 26 27 28 29 30 31 32 33 34 35 36 37 38 39 40 41 42 43 44 45 46 47 48 49 50
000
ASUS43 KMKX 251720
RWRWI

WISCONSIN REGIONAL WEATHER ROUNDUP
NATIONAL WEATHER SERVICE MILWAUKEE/SULLIVAN WI
1200 PM CDT THU MAY 25 2017

NOTE: "FAIR" INDICATES FEW OR NO CLOUDS BELOW 12,000 FEET WITH NO
SIGNIFICANT WEATHER AND/OR OBSTRUCTIONS TO VISIBILITY.

WIZ001-002-006>008-014>016-023>028-251800-
NORTHWEST WISCONSIN

CITY           SKY/WX    TMP DP  RH WIND       PRES   REMARKS
SUPERIOR ARPT  NOT AVBL
ASHLAND        SUNNY     59  48  67 N13       29.73F
HAYWARD        PTSUNNY   65  46  50 SE7       29.71F
SIREN          MOSUNNY   65  46  50 CALM      29.69S
CUMBERLAND     PTSUNNY   63  46  55 SE7       29.70S
RICE LAKE      MOSUNNY   64  48  56 SE9       29.71F
CHETEK         PTSUNNY   65  50  59 E7        29.70F
LADYSMITH      MOSUNNY   66  51  58 E7        29.72F
EAU CLAIRE     MOSUNNY   65  49  56 CALM      29.69F
MENOMONIE      MOSUNNY   65  50  57 E6        29.70S
NEW RICHMOND   PTSUNNY   63  48  57 S7        29.69F
OSCEOLA        PTSUNNY   64  50  59 SE10      29.71F
$$

WIZ003>005-009-010-017-018-251800-
NORTH CENTRAL WISCONSIN

CITY           SKY/WX    TMP DP  RH WIND       PRES   REMARKS
MANITOWISH WTR MOSUNNY   64  47  53 SE6       29.71F
ARBOR VITAE    MOSUNNY   67  49  53 S7        29.70F
WOODRUFF       MOSUNNY   67  49  53 S7        29.70F
RHINELANDER    MOSUNNY   69  49  48 E10       29.71S
EAGLE RIVER    PTSUNNY   67  44  43 NE8       29.70F
LAND O LAKES   MOSUNNY   65  44  46 NE5       29.73S
PHILLIPS       PTSUNNY   63  50  61 CALM      29.70F
TOMAHAWK       MOSUNNY   67  48  51 N6        29.70F
MEDFORD        MOSUNNY   64  51  62 NE3       29.70S
MERRILL        MOSUNNY   67  50  54 E8        29.69F
$$

WIZ029-030-035-036-043>047-251800-
CENTRAL WISCONSIN

CITY           SKY/WX    TMP DP  RH WIND       PRES   REMARKS
WAUSAU         MOSUNNY   67  51  56 NE8       29.67F
MOSINEE        PTSUNNY   64  54  68 NE6       29.70S
MARSHFIELD     PTSUNNY   67  51  56 E8        29.69R
STEVENS POINT  MOSUNNY   66  50  55 E8        29.69S
WAUPACA        MOSUNNY   68  53  58 NE8       29.68F
WAUTOMA        MOSUNNY   68  51  54 NE12      29.68F
WISC RAPIDS    MOSUNNY   68  53  58 CALM      29.69F
CAMP DOUGLAS   NOT AVBL
$$

WIZ011>013-019>022-031-037>040-048>050-251800-
NORTHEAST WISCONSIN

CITY           SKY/WX    TMP DP  RH WIND       PRES   REMARKS
ANTIGO         CLOUDY    65  52  63 NE9       29.70S
SHAWANO        MOSUNNY   69  53  58 E10       29.69S
OCONTO         SUNNY     64  52  66 NE8       29.69R
STURGEON BAY   PTSUNNY   60  51  72 N16       29.68S
GREEN BAY      SUNNY     63  55  75 NE15      29.69R
MANITOWOC      SUNNY     61  52  72 NE12      29.67S
APPLETON       PTSUNNY   64  50  59 NE14G20   29.66S
CLINTONVILLE   MOSUNNY   66  50  55 NE8       29.68S
OSHKOSH        SUNNY     62  53  72 NE7       29.67S
$$

WIZ032>034-041-042-053>061-251800-
SOUTHWEST WISCONSIN

CITY           SKY/WX    TMP DP  RH WIND       PRES   REMARKS
LA CROSSE      MOSUNNY   64  53  67 W6        29.69F
SPARTA         PTSUNNY   63  53  68 CALM      29.70S
VIROQUA        PTSUNNY   59  52  77 MISG      29.70F
BOSCOBEL       MOSUNNY   64  52  64 W3        29.69F
PRAIRIE DU CHI SUNNY     62  50  65 W5        29.70F
PLATTEVILLE    CLOUDY    59  55  85 N5        29.71S
$$

WIZ056-057-062-063-064-067-068-251800-
SOUTH CENTRAL WISCONSIN

CITY           SKY/WX    TMP DP  RH WIND       PRES   REMARKS
REEDSBURG      CLOUDY    62  54  75 CALM      29.69S
BARABOO/DELLS  MOSUNNY   64  51  63 CALM      29.69S
LONE ROCK      CLOUDY    60  52  74 CALM      29.70S
MINERAL POINT  PTSUNNY   61  55  82 NE3       29.70S
MADISON        MOSUNNY   63  54  72 N9        29.68R
MIDDLETON      CLOUDY    62  54  73 NE3       29.70R
WATERTOWN      CLOUDY    60  55  81 N8        29.67S
MONROE         CLOUDY    59  52  77 N7        29.69R
JANESVILLE     PTSUNNY   63  54  72 N12       29.67S
$$

WIZ051-052-058>065-066-070>072-251800-
SOUTHEAST WISCONSIN

CITY           SKY/WX    TMP DP  RH WIND       PRES   REMARKS
MILWAUKEE      MOSUNNY   61  52  72 N15G23    29.65R
WAUKESHA       CLOUDY    61  52  72 NW12      29.66S
MILWAUKEE/TIMM PTSUNNY   64  50  59 N12       29.65R
RACINE         MOSUNNY   61  51  70 N15G23    29.66R
KENOSHA        MOSUNNY   64  54  69 N12G17    29.64R
FOND DU LAC    PTSUNNY   63  53  70 N10       29.68S
SHEBOYGAN      MOSUNNY   66  56  70 N15       29.65S
WEST BEND      PTSUNNY   63  54  72 N6        29.65S
JUNEAU         MOSUNNY   60  53  78 N8G16     29.68F
$$

LSZ147-162-251800-
LAKE SUPERIOR

STATION/POSITION TIME  TEMP    WIND        PRES    WAVE
                       AIR SEA DIR/SP/G            HT/PER
                 (UTC) (F)     (DEG/KT/KT) (MB)    (FT/S)
$$

LMZ867-665-643>646-251800-
LAKE MICHIGAN

STATION/POSITION TIME  TEMP    WIND        PRES    WAVE
                       AIR SEA DIR/SP/G            HT/PER
                 (UTC) (F)     (DEG/KT/KT) (MB)    (FT/S)
$$

TC  - TEMPERATURE IN CELSIUS
VSB - VISIBILITY IN STATUTE MILES
WCI - WIND CHILL INDEX
HX  - HEAT INDEX




USA.gov is the U.S. government's official web portal to all federal, state and local government web resources and services.